| time (UTC) | temp C | wind direction | speed KPH | gust KPH | rain 1hr cm | rain 24hr cm | rain mn cm | humidity % | barometer mb |
| 20260506061542 | 1 | 355 | 6.4 | 14.5 | 0.05 | 0.05 | 0.05 | 84 | 1004.4 |
| 20260506044526 | -17 | 0.0 | 0.0 | 0.00 | 0.03 | 0.03 | 1003.9 | ||
| 20260506043024 | -17 | 0.0 | 0.0 | 0.03 | 0.03 | 0.03 | 1003.8 | ||
| 20260506041526 | -17 | 0.0 | 0.0 | 0.03 | 0.03 | 0.03 | 1003.7 | ||
| 20260506040016 | 1 | 251 | 0.0 | 1.6 | 0.03 | 0.03 | 0.03 | 88 | 1003.6 |
| 20260506034514 | 1 | 251 | 0.0 | 3.2 | 0.03 | 0.03 | 0.03 | 88 | 1003.5 |
| 20260506033014 | 0 | 251 | 0.0 | 4.8 | 0.00 | 0.00 | 0.00 | 88 | 1003.4 |
| 20260506031516 | 0 | 259 | 3.2 | 6.4 | 0.00 | 0.00 | 0.00 | 89 | 1003.4 |
| 20260506030011 | 0 | 244 | 4.8 | 6.4 | 0.00 | 0.00 | 0.00 | 89 | 1003.3 |
| 20260506024507 | 0 | 251 | 3.2 | 4.8 | 0.00 | 0.00 | 0.00 | 88 | 1003.1 |
| 20260506023005 | 0 | 281 | 3.2 | 4.8 | 0.00 | 0.00 | 0.00 | 88 | 1003.1 |
| 20260506021506 | 0 | 278 | 3.2 | 4.8 | 0.00 | 0.00 | 0.00 | 89 | 1003.0 |
| 20260506020002 | 0 | 278 | 0.0 | 1.6 | 0.00 | 0.00 | 0.00 | 89 | 1002.9 |
| 20260506014600 | -17 | 0.0 | 0.0 | 0.00 | 0.00 | 0.00 | 1002.9 | ||
| 20260506013054 | -17 | 0.0 | 0.0 | 0.00 | 0.00 | 0.00 | 1002.7 | ||
| 20260506011550 | -17 | 0.0 | 0.0 | 0.00 | 0.00 | 0.00 | 1002.6 | ||
| 20260506010048 | -17 | 0.0 | 0.0 | 0.00 | 0.00 | 0.00 | 1002.6 | ||
| 20260506004544 | -17 | 0.0 | 0.0 | 0.00 | 0.00 | 0.00 | 1002.5 | ||
| 20260506003037 | -17 | 0.0 | 0.0 | 0.00 | 0.00 | 0.00 | 1002.4 | ||
| 20260506001542 | -17 | 0.0 | 0.0 | 0.00 | 0.00 | 0.00 | 1002.4 | ||
| 20260506000036 | -17 | 0.0 | 0.0 | 0.00 | 0.00 | 0.00 | 1002.4 | ||
| 20260505234524 | -17 | 0.0 | 0.0 | 0.00 | 0.00 | 0.00 | 1002.2 | ||
| 20260505233019 | -17 | 0.0 | 0.0 | 0.00 | 0.00 | 0.00 | 1002.2 | ||
| 20260505231515 | -17 | 0.0 | 0.0 | 0.00 | 0.00 | 0.00 | 1002.1 | ||
| 20260505230015 | -17 | 0.0 | 0.0 | 0.00 | 0.00 | 0.00 | 1002.2 | ||
| 20260505224507 | -17 | 0.0 | 0.0 | 0.00 | 0.00 | 0.00 | 1002.1 | ||
| 20260505223008 | 0 | 167 | 4.8 | 4.8 | 0.00 | 0.00 | 0.00 | 92 | 1002.1 |
| 20260505221502 | -17 | 0.0 | 0.0 | 0.00 | 0.00 | 0.00 | 1001.9 | ||
| 20260505220100 | 0 | 76 | 1.6 | 8.0 | 0.00 | 0.00 | 0.00 | 90 | 1001.9 |
| 20260505214606 | 0 | 29 | 6.4 | 19.3 | 0.00 | 0.00 | 0.00 | 89 | 1001.7 |
| 20260505213059 | 1 | 71 | 1.6 | 8.0 | 0.00 | 0.00 | 0.00 | 85 | 1001.6 |
| 20260505211606 | 1 | 92 | 1.6 | 9.7 | 0.00 | 0.00 | 0.00 | 84 | 1001.5 |
| 20260505210104 | 1 | 17 | 4.8 | 14.5 | 0.00 | 0.00 | 0.00 | 83 | 1001.4 |
| 20260505204553 | 2 | 319 | 6.4 | 16.1 | 0.00 | 0.00 | 0.00 | 82 | 1001.4 |
| 20260505203052 | 2 | 9 | 8.0 | 20.9 | 0.00 | 0.00 | 0.00 | 82 | 1001.2 |
| 20260505201554 | 2 | 9 | 9.7 | 17.7 | 0.00 | 0.00 | 0.00 | 81 | 1001.2 |
| 20260505200050 | 2 | 339 | 4.8 | 14.5 | 0.00 | 0.00 | 0.00 | 79 | 1001.1 |
| 20260505194548 | 2 | 314 | 4.8 | 14.5 | 0.00 | 0.00 | 0.00 | 78 | 1001.0 |
| 20260505193050 | 2 | 13 | 6.4 | 14.5 | 0.00 | 0.00 | 0.00 | 79 | 1001.0 |
| 20260505191552 | 2 | 18 | 4.8 | 14.5 | 0.00 | 0.00 | 0.00 | 79 | 1000.9 |
| 20260505184554 | 2 | 28 | 9.7 | 20.9 | 0.00 | 0.00 | 0.00 | 77 | 1000.7 |
| 20260505183049 | 2 | 321 | 11.3 | 19.3 | 0.00 | 0.00 | 0.00 | 78 | 1000.6 |
| 20260505181541 | 2 | 349 | 6.4 | 16.1 | 0.00 | 0.00 | 0.00 | 78 | 1000.6 |
| 20260505180042 | 2 | 327 | 8.0 | 19.3 | 0.00 | 0.00 | 0.00 | 77 | 1000.4 |
| 20260505174542 | 2 | 12 | 9.7 | 20.9 | 0.00 | 0.00 | 0.00 | 78 | 1000.3 |
| 20260505173041 | 2 | 302 | 11.3 | 22.5 | 0.00 | 0.00 | 0.00 | 77 | 1000.3 |
| 20260505171541 | 2 | 329 | 8.0 | 24.1 | 0.00 | 0.00 | 0.00 | 75 | 1000.2 |
| 20260505170036 | 2 | 346 | 8.0 | 17.7 | 0.00 | 0.00 | 0.00 | 74 | 1000.3 |
| 20260505164537 | 2 | 5 | 9.7 | 20.9 | 0.00 | 0.00 | 0.00 | 75 | 1000.1 |
| 20260505163033 | 2 | 329 | 11.3 | 20.9 | 0.00 | 0.00 | 0.00 | 74 | 1000.0 |
| 20260505161532 | 3 | 351 | 8.0 | 19.3 | 0.00 | 0.00 | 0.00 | 73 | 1000.0 |
| 20260505153030 | 3 | 349 | 8.0 | 19.3 | 0.00 | 0.00 | 0.00 | 71 | 1000.0 |
| 20260505151525 | 3 | 302 | 9.7 | 20.9 | 0.00 | 0.00 | 0.00 | 70 | 999.8 |
| 20260505124506 | 3 | 301 | 9.7 | 17.7 | 0.00 | 0.05 | 0.00 | 68 | 999.1 |
| 20260505123004 | 3 | 31 | 8.0 | 24.1 | 0.00 | 0.05 | 0.00 | 70 | 998.9 |
| 20260505121503 | 3 | 42 | 6.4 | 17.7 | 0.00 | 0.05 | 0.00 | 71 | 998.8 |
| 20260505120101 | 3 | 333 | 8.0 | 25.7 | 0.00 | 0.05 | 0.00 | 70 | 998.7 |
| 20260505114603 | 3 | 16 | 6.4 | 25.7 | 0.00 | 0.05 | 0.00 | 69 | 998.6 |
| 20260505113057 | 3 | 338 | 11.3 | 22.5 | 0.00 | 0.05 | 0.00 | 70 | 998.4 |
| 20260505111559 | 3 | 18 | 6.4 | 14.5 | 0.00 | 0.05 | 0.00 | 72 | 998.3 |
| 20260505101546 | 3 | 338 | 8.0 | 17.7 | 0.00 | 0.05 | 0.00 | 70 | 997.9 |
| 20260505100041 | 3 | 355 | 8.0 | 17.7 | 0.00 | 0.05 | 0.00 | 72 | 997.8 |
| 20260505094537 | 2 | 299 | 6.4 | 17.7 | 0.00 | 0.05 | 0.00 | 73 | 997.7 |
| 20260505093043 | 2 | 337 | 6.4 | 16.1 | 0.00 | 0.05 | 0.00 | 76 | 997.6 |
| 20260505091541 | 2 | 302 | 8.0 | 16.1 | 0.00 | 0.05 | 0.00 | 77 | 997.5 |
| 20260505090044 | 2 | 330 | 9.7 | 17.7 | 0.00 | 0.05 | 0.00 | 78 | 997.5 |
| 20260505084529 | 2 | 9 | 12.9 | 20.9 | 0.00 | 0.05 | 0.00 | 79 | 997.3 |
| 20260505083028 | 2 | 24 | 9.7 | 22.5 | 0.00 | 0.05 | 0.00 | 79 | 997.3 |
| 20260505081536 | 2 | 294 | 8.0 | 22.5 | 0.00 | 0.05 | 0.00 | 79 | 997.2 |
| 20260505080046 | 2 | 351 | 8.0 | 20.9 | 0.00 | 0.05 | 0.00 | 79 | 997.1 |
| 20260505074525 | 2 | 355 | 12.9 | 20.9 | 0.00 | 0.05 | 0.00 | 80 | 997.0 |
| 20260505073024 | 2 | 324 | 9.7 | 22.5 | 0.00 | 0.05 | 0.00 | 81 | 996.9 |
| 20260505071522 | 2 | 311 | 4.8 | 20.9 | 0.00 | 0.05 | 0.00 | 82 | 996.8 |